owner,sensor,date,latitude,longitude,vertical_datum,direction_of_sea_water_velocity,sea_water_speed,upward_sea_water_velocity,qcFlag 
TABS,ioos:station:wmo:42044:1,2001-03-01T00:00:00Z,26.1914,-97.0507,2.0,128.7973593,9.751517831,-99999.0,'11133222,11111222,99999999' 
TABS,ioos:station:wmo:42044:1,2001-03-01T00:30:00Z,26.1914,-97.0507,2.0,66.24286958,21.81891381,-99999.0,'11111222,11111222,99999999' 
TABS,ioos:station:wmo:42044:1,2001-03-01T01:00:00Z,26.1914,-97.0507,2.0,118.2199856,9.135912653,-99999.0,'11133222,11111222,99999999' 
TABS,ioos:station:wmo:42044:1,2001-03-01T01:30:00Z,26.1914,-97.0507,2.0,122.203209,9.513537723,-99999.0,'11133222,11111222,99999999' 
TABS,ioos:station:wmo:42044:1,2001-03-01T02:00:00Z,26.1914,-97.0507,2.0,92.18950626,11.77859924,-99999.0,'11111222,11111222,99999999' 
TABS,ioos:station:wmo:42044:1,2001-03-01T02:30:00Z,26.1914,-97.0507,2.0,127.2873117,11.80231333,-99999.0,'11111222,11111222,99999999' 
TABS,ioos:station:wmo:42044:1,2001-03-01T03:00:00Z,26.1914,-97.0507,2.0,121.7468004,11.04211031,-99999.0,'11111222,11111222,99999999' 
TABS,ioos:station:wmo:42044:1,2001-03-01T03:30:00Z,26.1914,-97.0507,2.0,112.045537,13.50760156,-99999.0,'11111222,11111222,99999999' 
TABS,ioos:station:wmo:42044:1,2001-03-01T04:00:00Z,26.1914,-97.0507,2.0,118.6243904,13.06707695,-99999.0,'11111222,11111222,99999999' 
TABS,ioos:station:wmo:42044:1,2001-03-01T04:30:00Z,26.1914,-97.0507,2.0,114.8523405,13.46714521,-99999.0,'11111222,11111222,99999999' 
TABS,ioos:station:wmo:42044:1,2001-03-01T05:00:00Z,26.1914,-97.0507,2.0,89.44012552,15.35073288,-99999.0,'11111222,11111222,99999999' 
TABS,ioos:station:wmo:42044:1,2001-03-01T05:30:00Z,26.1914,-97.0507,2.0,79.17063191,14.26402818,-99999.0,'11111222,11111222,99999999' 
TABS,ioos:station:wmo:42044:1,2001-03-01T06:00:00Z,26.1914,-97.0507,2.0,104.8702751,14.49546481,-99999.0,'11111222,11111222,99999999' 
TABS,ioos:station:wmo:42044:1,2001-03-01T06:30:00Z,26.1914,-97.0507,2.0,345.149579,12.79747241,-99999.0,'11111222,11111222,99999999' 
TABS,ioos:station:wmo:42044:1,2001-03-01T07:00:00Z,26.1914,-97.0507,2.0,271.4980052,22.9578418,-99999.0,'11111222,11111222,99999999' 
TABS,ioos:station:wmo:42044:1,2001-03-01T07:30:00Z,26.1914,-97.0507,2.0,279.2523855,26.86955154,-99999.0,'11111222,11111222,99999999' 
TABS,ioos:station:wmo:42044:1,2001-03-01T08:00:00Z,26.1914,-97.0507,2.0,278.5736841,29.98505294,-99999.0,'11111222,11111222,99999999' 
TABS,ioos:station:wmo:42044:1,2001-03-01T08:30:00Z,26.1914,-97.0507,2.0,275.4438824,34.57592804,-99999.0,'11111222,11111222,99999999' 
TABS,ioos:station:wmo:42044:1,2001-03-01T09:00:00Z,26.1914,-97.0507,2.0,273.5687669,35.82946413,-99999.0,'11111222,11111222,99999999' 
TABS,ioos:station:wmo:42044:1,2001-03-01T09:30:00Z,26.1914,-97.0507,2.0,270.6436833,40.08252612,-99999.0,'11111222,11111222,99999999' 
TABS,ioos:station:wmo:42044:1,2001-03-01T10:00:00Z,26.1914,-97.0507,2.0,274.7051188,36.33241666,-99999.0,'11111222,11111222,99999999' 
TABS,ioos:station:wmo:42044:1,2001-03-01T10:30:00Z,26.1914,-97.0507,2.0,270.848555,40.53444091,-99999.0,'11111222,11111222,99999999' 
TABS,ioos:station:wmo:42044:1,2001-03-01T11:00:00Z,26.1914,-97.0507,2.0,276.6840763,46.05298253,-99999.0,'11111222,11111222,99999999' 
TABS,ioos:station:wmo:42044:1,2001-03-01T11:30:00Z,26.1914,-97.0507,2.0,285.6072127,44.86411706,-99999.0,'11111222,11111222,99999999' 
TABS,ioos:station:wmo:42044:1,2001-03-01T12:00:00Z,26.1914,-97.0507,2.0,268.026752,56.35340274,-99999.0,'11111222,11111222,99999999' 
TABS,ioos:station:wmo:42044:1,2001-03-01T12:30:00Z,26.1914,-97.0507,2.0,263.0954719,58.23225996,-99999.0,'11111222,11111222,99999999' 
TABS,ioos:station:wmo:42044:1,2001-03-01T13:00:00Z,26.1914,-97.0507,2.0,256.7090346,58.33233237,-99999.0,'11111222,11111222,99999999' 
TABS,ioos:station:wmo:42044:1,2001-03-01T13:30:00Z,26.1914,-97.0507,2.0,258.8283942,60.75107324,-99999.0,'11111222,11111222,99999999' 
TABS,ioos:station:wmo:42044:1,2001-03-01T14:00:00Z,26.1914,-97.0507,2.0,249.6333966,58.64612945,-99999.0,'11111222,11111222,99999999' 
TABS,ioos:station:wmo:42044:1,2001-03-01T14:30:00Z,26.1914,-97.0507,2.0,252.7074319,59.14319318,-99999.0,'11111222,11111222,99999999' 
TABS,ioos:station:wmo:42044:1,2001-03-01T15:00:00Z,26.1914,-97.0507,2.0,255.2026775,60.10319958,-99999.0,'11111222,11111222,99999999' 
TABS,ioos:station:wmo:42044:1,2001-03-01T15:30:00Z,26.1914,-97.0507,2.0,250.8775974,62.76307513,-99999.0,'11111222,11111222,99999999' 
TABS,ioos:station:wmo:42044:1,2001-03-01T16:00:00Z,26.1914,-97.0507,2.0,248.9672324,64.33623085,-99999.0,'11111222,11111222,99999999' 
TABS,ioos:station:wmo:42044:1,2001-03-01T16:30:00Z,26.1914,-97.0507,2.0,249.6506212,67.69470068,-99999.0,'11111222,11111222,99999999' 
TABS,ioos:station:wmo:42044:1,2001-03-01T17:00:00Z,26.1914,-97.0507,2.0,258.9558907,69.22189827,-99999.0,'11111222,11111222,99999999' 
TABS,ioos:station:wmo:42044:1,2001-03-01T17:30:00Z,26.1914,-97.0507,2.0,254.491479,69.11635407,-99999.0,'11111222,11111222,99999999' 
TABS,ioos:station:wmo:42044:1,2001-03-01T18:00:00Z,26.1914,-97.0507,2.0,258.344195,82.61346258,-99999.0,'11111222,11111222,99999999' 
TABS,ioos:station:wmo:42044:1,2001-03-01T18:30:00Z,26.1914,-97.0507,2.0,252.8739075,67.81693741,-99999.0,'11111222,11111222,99999999' 
TABS,ioos:station:wmo:42044:1,2001-03-01T19:00:00Z,26.1914,-97.0507,2.0,254.4059276,73.17335102,-99999.0,'11111222,11111222,99999999' 
TABS,ioos:station:wmo:42044:1,2001-03-01T19:30:00Z,26.1914,-97.0507,2.0,258.2806202,53.56656513,-99999.0,'11111222,11111222,99999999' 
TABS,ioos:station:wmo:42044:1,2001-03-01T20:00:00Z,26.1914,-97.0507,2.0,256.3668118,72.67760178,-99999.0,'11111222,11111222,99999999' 
TABS,ioos:station:wmo:42044:1,2001-03-01T20:30:00Z,26.1914,-97.0507,2.0,264.1552583,77.58326108,-99999.0,'11111222,11111222,99999999' 
TABS,ioos:station:wmo:42044:1,2001-03-01T21:00:00Z,26.1914,-97.0507,2.0,256.1249242,78.27383343,-99999.0,'11111222,11111222,99999999' 
TABS,ioos:station:wmo:42044:1,2001-03-01T21:30:00Z,26.1914,-97.0507,2.0,265.0792586,79.86430617,-99999.0,'11111222,11111222,99999999' 
TABS,ioos:station:wmo:42044:1,2001-03-01T22:00:00Z,26.1914,-97.0507,2.0,267.4399554,86.6564585,-99999.0,'11111222,11111222,99999999' 
TABS,ioos:station:wmo:42044:1,2001-03-01T22:30:00Z,26.1914,-97.0507,2.0,273.4387663,96.87438309,-99999.0,'11111222,11111222,99999999' 
TABS,ioos:station:wmo:42044:1,2001-03-01T23:00:00Z,26.1914,-97.0507,2.0,271.0146651,75.70186061,-99999.0,'11111222,11111222,99999999' 
TABS,ioos:station:wmo:42044:1,2001-03-01T23:30:00Z,26.1914,-97.0507,2.0,269.652103,74.20136454,-99999.0,'11111222,11111222,99999999' 
TABS,ioos:station:wmo:42044:1,2001-03-02T00:00:00Z,26.1914,-97.0507,2.0,271.0263732,66.46065453,-99999.0,'11111222,11111222,99999999' 
TABS,ioos:station:wmo:42044:1,2001-03-02T00:30:00Z,26.1914,-97.0507,2.0,272.876326,74.14338069,-99999.0,'11111222,11111222,99999999' 
TABS,ioos:station:wmo:42044:1,2001-03-02T01:00:00Z,26.1914,-97.0507,2.0,274.8882596,68.18797328,-99999.0,'11111222,11111222,99999999' 
TABS,ioos:station:wmo:42044:1,2001-03-02T01:30:00Z,26.1914,-97.0507,2.0,274.2019867,71.11111376,-99999.0,'11111222,11111222,99999999' 
TABS,ioos:station:wmo:42044:1,2001-03-02T02:00:00Z,26.1914,-97.0507,2.0,278.4515358,66.88628036,-99999.0,'11111222,11111222,99999999' 
TABS,ioos:station:wmo:42044:1,2001-03-02T02:30:00Z,26.1914,-97.0507,2.0,268.3294348,61.41609073,-99999.0,'11111222,11111222,99999999' 
TABS,ioos:station:wmo:42044:1,2001-03-02T03:00:00Z,26.1914,-97.0507,2.0,261.3278584,60.28920384,-99999.0,'11111222,11111222,99999999' 
TABS,ioos:station:wmo:42044:1,2001-03-02T03:30:00Z,26.1914,-97.0507,2.0,256.6913375,59.55942998,-99999.0,'11111222,11111222,99999999' 
TABS,ioos:station:wmo:42044:1,2001-03-02T04:00:00Z,26.1914,-97.0507,2.0,239.2953516,57.18678956,-99999.0,'11111222,11111222,99999999' 
TABS,ioos:station:wmo:42044:1,2001-03-02T04:30:00Z,26.1914,-97.0507,2.0,232.2933943,54.8058391,-99999.0,'11111222,11111222,99999999' 
TABS,ioos:station:wmo:42044:1,2001-03-02T05:00:00Z,26.1914,-97.0507,2.0,233.6611428,54.56034641,-99999.0,'11111222,11111222,99999999' 
TABS,ioos:station:wmo:42044:1,2001-03-02T05:30:00Z,26.1914,-97.0507,2.0,239.035895,52.12870994,-99999.0,'11111222,11111222,99999999' 
TABS,ioos:station:wmo:42044:1,2001-03-02T06:00:00Z,26.1914,-97.0507,2.0,229.6381812,43.01985588,-99999.0,'11111222,11111222,99999999' 
TABS,ioos:station:wmo:42044:1,2001-03-02T06:30:00Z,26.1914,-97.0507,2.0,226.0119383,41.62680146,-99999.0,'11111222,11111222,99999999' 
TABS,ioos:station:wmo:42044:1,2001-03-02T07:00:00Z,26.1914,-97.0507,2.0,230.6320705,39.69771404,-99999.0,'11111222,11111222,99999999' 
TABS,ioos:station:wmo:42044:1,2001-03-02T07:30:00Z,26.1914,-97.0507,2.0,236.9718957,43.18906922,-99999.0,'11111222,11111222,99999999' 
TABS,ioos:station:wmo:42044:1,2001-03-02T08:00:00Z,26.1914,-97.0507,2.0,237.9737567,38.48746549,-99999.0,'11111222,11111222,99999999' 
TABS,ioos:station:wmo:42044:1,2001-03-02T08:30:00Z,26.1914,-97.0507,2.0,235.098487,33.06751881,-99999.0,'11111222,11111222,99999999' 
TABS,ioos:station:wmo:42044:1,2001-03-02T09:00:00Z,26.1914,-97.0507,2.0,257.1219573,30.10725162,-99999.0,'11111222,11111222,99999999' 
TABS,ioos:station:wmo:42044:1,2001-03-02T09:30:00Z,26.1914,-97.0507,2.0,249.4079143,30.08192148,-99999.0,'11111222,11111222,99999999' 
TABS,ioos:station:wmo:42044:1,2001-03-02T10:00:00Z,26.1914,-97.0507,2.0,236.3095903,26.32052431,-99999.0,'11111222,11111222,99999999' 
TABS,ioos:station:wmo:42044:1,2001-03-02T10:30:00Z,26.1914,-97.0507,2.0,238.5787274,25.14763806,-99999.0,'11111222,11111222,99999999' 
TABS,ioos:station:wmo:42044:1,2001-03-02T11:00:00Z,26.1914,-97.0507,2.0,242.0934654,20.06302569,-99999.0,'11111222,11111222,99999999' 
TABS,ioos:station:wmo:42044:1,2001-03-02T11:30:00Z,26.1914,-97.0507,2.0,232.7977296,15.53026078,-99999.0,'11111222,11111222,99999999' 
TABS,ioos:station:wmo:42044:1,2001-03-02T12:00:00Z,26.1914,-97.0507,2.0,201.1783938,9.909288572,-99999.0,'11133222,11111222,99999999' 
TABS,ioos:station:wmo:42044:1,2001-03-02T12:30:00Z,26.1914,-97.0507,2.0,235.8435117,9.546706238,-99999.0,'11133222,11111222,99999999' 
TABS,ioos:station:wmo:42044:1,2001-03-02T13:00:00Z,26.1914,-97.0507,2.0,241.6334337,10.67131669,-99999.0,'11111222,11111222,99999999' 
TABS,ioos:station:wmo:42044:1,2001-03-02T13:30:00Z,26.1914,-97.0507,2.0,261.242322,11.75706171,-99999.0,'11111222,11111222,99999999' 
TABS,ioos:station:wmo:42044:1,2001-03-02T14:00:00Z,26.1914,-97.0507,2.0,238.9193859,10.96392722,-99999.0,'11111222,11111222,99999999' 
TABS,ioos:station:wmo:42044:1,2001-03-02T14:30:00Z,26.1914,-97.0507,2.0,230.6137346,15.03449367,-99999.0,'11111222,11111222,99999999' 
TABS,ioos:station:wmo:42044:1,2001-03-02T15:00:00Z,26.1914,-97.0507,2.0,222.4935544,16.97973204,-99999.0,'11111222,11111222,99999999' 
TABS,ioos:station:wmo:42044:1,2001-03-02T15:30:00Z,26.1914,-97.0507,2.0,221.3169754,18.05436235,-99999.0,'11111222,11111222,99999999' 
TABS,ioos:station:wmo:42044:1,2001-03-02T16:00:00Z,26.1914,-97.0507,2.0,218.1332706,14.96363926,-99999.0,'11111222,11111222,99999999' 
TABS,ioos:station:wmo:42044:1,2001-03-02T16:30:00Z,26.1914,-97.0507,2.0,233.0534872,25.53802263,-99999.0,'11111222,11111222,99999999' 
TABS,ioos:station:wmo:42044:1,2001-03-02T17:00:00Z,26.1914,-97.0507,2.0,237.4477963,33.23032501,-99999.0,'11111222,11111222,99999999' 
TABS,ioos:station:wmo:42044:1,2001-03-02T17:30:00Z,26.1914,-97.0507,2.0,193.3529389,14.85151171,-99999.0,'11111222,11111222,99999999' 
TABS,ioos:station:wmo:42044:1,2001-03-02T18:00:00Z,26.1914,-97.0507,2.0,199.3498833,14.84878783,-99999.0,'11111222,11111222,99999999' 
TABS,ioos:station:wmo:42044:1,2001-03-02T18:30:00Z,26.1914,-97.0507,2.0,231.9862257,26.85734909,-99999.0,'11111222,11111222,99999999' 
TABS,ioos:station:wmo:42044:1,2001-03-02T19:00:00Z,26.1914,-97.0507,2.0,210.754391,14.56890181,-99999.0,'11111222,11111222,99999999' 
TABS,ioos:station:wmo:42044:1,2001-03-02T19:30:00Z,26.1914,-97.0507,2.0,252.4197688,28.60598714,-99999.0,'11111222,11111222,99999999' 
TABS,ioos:station:wmo:42044:1,2001-03-02T20:00:00Z,26.1914,-97.0507,2.0,232.83346,17.01622755,-99999.0,'11111222,11111222,99999999' 
TABS,ioos:station:wmo:42044:1,2001-03-02T20:30:00Z,26.1914,-97.0507,2.0,241.1142336,14.80148979,-99999.0,'11111222,11111222,99999999' 
TABS,ioos:station:wmo:42044:1,2001-03-02T21:00:00Z,26.1914,-97.0507,2.0,245.2870981,18.53774798,-99999.0,'11111222,11111222,99999999' 
TABS,ioos:station:wmo:42044:1,2001-03-02T21:30:00Z,26.1914,-97.0507,2.0,253.6240747,18.47963744,-99999.0,'11111222,11111222,99999999' 
TABS,ioos:station:wmo:42044:1,2001-03-02T22:00:00Z,26.1914,-97.0507,2.0,254.3933525,17.17311853,-99999.0,'11111222,11111222,99999999' 
TABS,ioos:station:wmo:42044:1,2001-03-02T22:30:00Z,26.1914,-97.0507,2.0,259.966482,14.52208318,-99999.0,'11111222,11111222,99999999' 
TABS,ioos:station:wmo:42044:1,2001-03-02T23:00:00Z,26.1914,-97.0507,2.0,257.7365691,14.0301283,-99999.0,'11111222,11111222,99999999' 
TABS,ioos:station:wmo:42044:1,2001-03-02T23:30:00Z,26.1914,-97.0507,2.0,274.6418782,12.85214768,-99999.0,'11111222,11111222,99999999' 
TABS,ioos:station:wmo:42044:1,2001-03-03T00:00:00Z,26.1914,-97.0507,2.0,306.5988241,12.24413737,-99999.0,'11111222,11111222,99999999' 
TABS,ioos:station:wmo:42044:1,2001-03-03T00:30:00Z,26.1914,-97.0507,2.0,265.7824285,12.10276828,-99999.0,'11111222,11111222,99999999' 
TABS,ioos:station:wmo:42044:1,2001-03-03T01:00:00Z,26.1914,-97.0507,2.0,290.3219642,12.87112272,-99999.0,'11111222,11111222,99999999' 
TABS,ioos:station:wmo:42044:1,2001-03-03T01:30:00Z,26.1914,-97.0507,2.0,272.4019065,10.73943201,-99999.0,'11111222,11111222,99999999' 
TABS,ioos:station:wmo:42044:1,2001-03-03T02:00:00Z,26.1914,-97.0507,2.0,280.0212832,10.28693346,-99999.0,'11111222,11111222,99999999' 
TABS,ioos:station:wmo:42044:1,2001-03-03T02:30:00Z,26.1914,-97.0507,2.0,352.638815,8.116902118,-99999.0,'11133222,11111222,99999999' 
TABS,ioos:station:wmo:42044:1,2001-03-03T03:00:00Z,26.1914,-97.0507,2.0,192.0682549,10.66573017,-99999.0,'11111222,11111222,99999999' 
TABS,ioos:station:wmo:42044:1,2001-03-03T03:30:00Z,26.1914,-97.0507,2.0,130.9933821,12.04317649,-99999.0,'11111222,11111222,99999999' 
TABS,ioos:station:wmo:42044:1,2001-03-03T04:00:00Z,26.1914,-97.0507,2.0,234.626559,5.665933286,-99999.0,'11133222,11111222,99999999' 
TABS,ioos:station:wmo:42044:1,2001-03-03T04:30:00Z,26.1914,-97.0507,2.0,328.7841242,6.618194618,-99999.0,'11133222,11111222,99999999' 
TABS,ioos:station:wmo:42044:1,2001-03-03T05:00:00Z,26.1914,-97.0507,2.0,130.343383,10.36504221,-99999.0,'11111222,11111222,99999999' 
TABS,ioos:station:wmo:42044:1,2001-03-03T05:30:00Z,26.1914,-97.0507,2.0,162.18539,4.380011416,-99999.0,'11133222,11111222,99999999' 
TABS,ioos:station:wmo:42044:1,2001-03-03T06:00:00Z,26.1914,-97.0507,2.0,141.3869969,3.813764544,-99999.0,'11133222,11111222,99999999' 
TABS,ioos:station:wmo:42044:1,2001-03-03T06:30:00Z,26.1914,-97.0507,2.0,70.45628475,4.902448368,-99999.0,'11133222,11111222,99999999' 
TABS,ioos:station:wmo:42044:1,2001-03-03T07:00:00Z,26.1914,-97.0507,2.0,9.514408755,1.814965564,-99999.0,'11133222,11111222,99999999' 
TABS,ioos:station:wmo:42044:1,2001-03-03T07:30:00Z,26.1914,-97.0507,2.0,144.9992495,5.456903884,-99999.0,'11133222,11111222,99999999' 
TABS,ioos:station:wmo:42044:1,2001-03-03T08:00:00Z,26.1914,-97.0507,2.0,155.1777817,4.263918386,-99999.0,'11133222,11111222,99999999' 
TABS,ioos:station:wmo:42044:1,2001-03-03T08:30:00Z,26.1914,-97.0507,2.0,141.3088224,5.7268927,-99999.0,'11133222,11111222,99999999' 
TABS,ioos:station:wmo:42044:1,2001-03-03T09:00:00Z,26.1914,-97.0507,2.0,176.3985198,7.164146844,-99999.0,'11133222,11111222,99999999' 
TABS,ioos:station:wmo:42044:1,2001-03-03T09:30:00Z,26.1914,-97.0507,2.0,186.3868916,5.393477542,-99999.0,'11133222,11111222,99999999' 
TABS,ioos:station:wmo:42044:1,2001-03-03T10:00:00Z,26.1914,-97.0507,2.0,183.71507,4.629730014,-99999.0,'11133222,11111222,99999999' 
TABS,ioos:station:wmo:42044:1,2001-03-03T10:30:00Z,26.1914,-97.0507,2.0,208.5099208,5.928996542,-99999.0,'11133222,11111222,99999999' 
TABS,ioos:station:wmo:42044:1,2001-03-03T11:00:00Z,26.1914,-97.0507,2.0,220.4539387,8.029707342,-99999.0,'11133222,11111222,99999999' 
TABS,ioos:station:wmo:42044:1,2001-03-03T11:30:00Z,26.1914,-97.0507,2.0,200.0245462,11.73973168,-99999.0,'11111222,11111222,99999999' 
TABS,ioos:station:wmo:42044:1,2001-03-03T12:00:00Z,26.1914,-97.0507,2.0,198.2132333,11.45385525,-99999.0,'11111222,11111222,99999999' 
TABS,ioos:station:wmo:42044:1,2001-03-03T12:30:00Z,26.1914,-97.0507,2.0,235.9537213,13.84281041,-99999.0,'11111222,11111222,99999999' 
TABS,ioos:station:wmo:42044:1,2001-03-03T13:00:00Z,26.1914,-97.0507,2.0,200.7954715,12.59022637,-99999.0,'11111222,11111222,99999999' 
TABS,ioos:station:wmo:42044:1,2001-03-03T13:30:00Z,26.1914,-97.0507,2.0,234.2201096,13.76849302,-99999.0,'11111222,11111222,99999999' 
TABS,ioos:station:wmo:42044:1,2001-03-03T14:00:00Z,26.1914,-97.0507,2.0,248.6113816,11.84581361,-99999.0,'11111222,11111222,99999999' 
TABS,ioos:station:wmo:42044:1,2001-03-03T14:30:00Z,26.1914,-97.0507,2.0,243.1504817,13.52837758,-99999.0,'11111222,11111222,99999999' 
TABS,ioos:station:wmo:42044:1,2001-03-03T15:00:00Z,26.1914,-97.0507,2.0,220.2459946,10.15362497,-99999.0,'11111222,11111222,99999999' 
TABS,ioos:station:wmo:42044:1,2001-03-03T15:30:00Z,26.1914,-97.0507,2.0,220.7414553,21.23647099,-99999.0,'11111222,11111222,99999999' 
TABS,ioos:station:wmo:42044:1,2001-03-03T16:00:00Z,26.1914,-97.0507,2.0,169.1362354,11.83204547,-99999.0,'11111222,11111222,99999999' 
TABS,ioos:station:wmo:42044:1,2001-03-03T16:30:00Z,26.1914,-97.0507,2.0,180.7299409,11.77095578,-99999.0,'11111222,11111222,99999999' 
TABS,ioos:station:wmo:42044:1,2001-03-03T17:00:00Z,26.1914,-97.0507,2.0,182.9556315,11.63548022,-99999.0,'11111222,11111222,99999999' 
TABS,ioos:station:wmo:42044:1,2001-03-03T17:30:00Z,26.1914,-97.0507,2.0,187.2180828,10.66452062,-99999.0,'11111222,11111222,99999999' 
TABS,ioos:station:wmo:42044:1,2001-03-03T18:00:00Z,26.1914,-97.0507,2.0,194.7293652,14.63082021,-99999.0,'11111222,11111222,99999999' 
TABS,ioos:station:wmo:42044:1,2001-03-03T18:30:00Z,26.1914,-97.0507,2.0,209.9144495,12.55237029,-99999.0,'11111222,11111222,99999999' 
TABS,ioos:station:wmo:42044:1,2001-03-03T19:00:00Z,26.1914,-97.0507,2.0,226.817983,9.805437267,-99999.0,'11133222,11111222,99999999' 
TABS,ioos:station:wmo:42044:1,2001-03-03T19:30:00Z,26.1914,-97.0507,2.0,110.9496525,7.495491979,-99999.0,'11133222,11111222,99999999' 
TABS,ioos:station:wmo:42044:1,2001-03-03T20:00:00Z,26.1914,-97.0507,2.0,58.4999033,7.693763708,-99999.0,'11133222,11111222,99999999' 
TABS,ioos:station:wmo:42044:1,2001-03-03T20:30:00Z,26.1914,-97.0507,2.0,222.9552533,14.86577613,-99999.0,'11111222,11111222,99999999' 
TABS,ioos:station:wmo:42044:1,2001-03-03T21:00:00Z,26.1914,-97.0507,2.0,168.1264654,5.783744462,-99999.0,'11133222,11111222,99999999' 
TABS,ioos:station:wmo:42044:1,2001-03-03T21:30:00Z,26.1914,-97.0507,2.0,206.8561099,13.19297161,-99999.0,'11111222,11111222,99999999' 
TABS,ioos:station:wmo:42044:1,2001-03-03T22:00:00Z,26.1914,-97.0507,2.0,199.0589916,12.77003524,-99999.0,'11111222,11111222,99999999' 
TABS,ioos:station:wmo:42044:1,2001-03-03T22:30:00Z,26.1914,-97.0507,2.0,220.7296607,16.90434855,-99999.0,'11111222,11111222,99999999' 
TABS,ioos:station:wmo:42044:1,2001-03-03T23:00:00Z,26.1914,-97.0507,2.0,224.3441563,18.54155333,-99999.0,'11111222,11111222,99999999' 
TABS,ioos:station:wmo:42044:1,2001-03-03T23:30:00Z,26.1914,-97.0507,2.0,236.6436503,21.40624442,-99999.0,'11111222,11111222,99999999' 
TABS,ioos:station:wmo:42044:1,2001-03-04T00:00:00Z,26.1914,-97.0507,2.0,249.4033255,24.98712068,-99999.0,'11111222,11111222,99999999' 
TABS,ioos:station:wmo:42044:1,2001-03-04T02:30:00Z,26.1914,-97.0507,2.0,299.1238261,49.29182184,-99999.0,'11111222,11111222,99999999' 
TABS,ioos:station:wmo:42044:1,2001-03-04T03:00:00Z,26.1914,-97.0507,2.0,282.5291993,13.73712124,-99999.0,'11111222,11111222,99999999' 
TABS,ioos:station:wmo:42044:1,2001-03-04T03:30:00Z,26.1914,-97.0507,2.0,289.9940072,13.95080643,-99999.0,'11111222,11111222,99999999' 
TABS,ioos:station:wmo:42044:1,2001-03-04T04:00:00Z,26.1914,-97.0507,2.0,291.8138328,17.65405619,-99999.0,'11111222,11111222,99999999' 
TABS,ioos:station:wmo:42044:1,2001-03-04T04:30:00Z,26.1914,-97.0507,2.0,291.2735367,20.94732441,-99999.0,'11111222,11111222,99999999' 
TABS,ioos:station:wmo:42044:1,2001-03-04T05:00:00Z,26.1914,-97.0507,2.0,287.4872833,34.21104062,-99999.0,'11111222,11111222,99999999' 
TABS,ioos:station:wmo:42044:1,2001-03-04T05:30:00Z,26.1914,-97.0507,2.0,293.1654622,31.44526991,-99999.0,'11111222,11111222,99999999' 
TABS,ioos:station:wmo:42044:1,2001-03-04T06:00:00Z,26.1914,-97.0507,2.0,293.4939093,27.29240371,-99999.0,'11111222,11111222,99999999' 
TABS,ioos:station:wmo:42044:1,2001-03-04T06:30:00Z,26.1914,-97.0507,2.0,297.1540432,26.11865234,-99999.0,'11111222,11111222,99999999' 
TABS,ioos:station:wmo:42044:1,2001-03-04T07:00:00Z,26.1914,-97.0507,2.0,299.5584208,29.29219862,-99999.0,'11111222,11111222,99999999' 
TABS,ioos:station:wmo:42044:1,2001-03-04T07:30:00Z,26.1914,-97.0507,2.0,309.1731946,20.75476331,-99999.0,'11111222,11111222,99999999' 
TABS,ioos:station:wmo:42044:1,2001-03-04T08:00:00Z,26.1914,-97.0507,2.0,299.2819866,22.55149219,-99999.0,'11111222,11111222,99999999' 
TABS,ioos:station:wmo:42044:1,2001-03-04T08:30:00Z,26.1914,-97.0507,2.0,297.5107969,20.32862514,-99999.0,'11111222,11111222,99999999' 
TABS,ioos:station:wmo:42044:1,2001-03-04T09:00:00Z,26.1914,-97.0507,2.0,312.6351996,17.82012907,-99999.0,'11111222,11111222,99999999' 
TABS,ioos:station:wmo:42044:1,2001-03-04T09:30:00Z,26.1914,-97.0507,2.0,332.8958614,14.72739624,-99999.0,'11111222,11111222,99999999' 
TABS,ioos:station:wmo:42044:1,2001-03-04T10:00:00Z,26.1914,-97.0507,2.0,311.590136,14.14597116,-99999.0,'11111222,11111222,99999999' 
TABS,ioos:station:wmo:42044:1,2001-03-04T10:30:00Z,26.1914,-97.0507,2.0,299.446987,13.34383753,-99999.0,'11111222,11111222,99999999' 
TABS,ioos:station:wmo:42044:1,2001-03-04T11:00:00Z,26.1914,-97.0507,2.0,209.1195827,11.93905356,-99999.0,'11111222,11111222,99999999' 
TABS,ioos:station:wmo:42044:1,2001-03-04T11:30:00Z,26.1914,-97.0507,2.0,170.1445957,6.952596637,-99999.0,'11133222,11111222,99999999' 
TABS,ioos:station:wmo:42044:1,2001-03-04T12:00:00Z,26.1914,-97.0507,2.0,97.4583355,9.16756238,-99999.0,'11133222,11111222,99999999' 
TABS,ioos:station:wmo:42044:1,2001-03-04T12:30:00Z,26.1914,-97.0507,2.0,96.76237386,2.547724475,-99999.0,'11133222,11111222,99999999' 
TABS,ioos:station:wmo:42044:1,2001-03-04T13:00:00Z,26.1914,-97.0507,2.0,194.0360002,0.618465844,-99999.0,'11133222,11111222,99999999' 
TABS,ioos:station:wmo:42044:1,2001-03-04T13:30:00Z,26.1914,-97.0507,2.0,270.0004209,8.49,-99999.0,'11133222,11111222,99999999' 
TABS,ioos:station:wmo:42044:1,2001-03-04T14:00:00Z,26.1914,-97.0507,2.0,151.5119279,1.865931403,-99999.0,'11133222,11111222,99999999' 
TABS,ioos:station:wmo:42044:1,2001-03-04T14:30:00Z,26.1914,-97.0507,2.0,198.5628732,1.413541651,-99999.0,'11133222,11111222,99999999' 
TABS,ioos:station:wmo:42044:1,2001-03-04T15:00:00Z,26.1914,-97.0507,2.0,163.9820423,2.174419463,-99999.0,'11133222,11111222,99999999' 
TABS,ioos:station:wmo:42044:1,2001-03-04T15:30:00Z,26.1914,-97.0507,2.0,63.2427444,1.332704018,-99999.0,'11133222,11111222,99999999' 
TABS,ioos:station:wmo:42044:1,2001-03-04T16:00:00Z,26.1914,-97.0507,2.0,230.9641575,0.952680429,-99999.0,'11133222,11111222,99999999' 
TABS,ioos:station:wmo:42044:1,2001-03-04T16:30:00Z,26.1914,-97.0507,2.0,270.0004209,0.89,-99999.0,'11133222,11111222,99999999' 
TABS,ioos:station:wmo:42044:1,2001-03-04T17:00:00Z,26.1914,-97.0507,2.0,246.9335181,2.27160736,-99999.0,'11133222,11111222,99999999' 
TABS,ioos:station:wmo:42044:1,2001-03-04T17:30:00Z,26.1914,-97.0507,2.0,254.6558489,1.700617535,-99999.0,'11133222,11111222,99999999' 
TABS,ioos:station:wmo:42044:1,2001-03-04T18:00:00Z,26.1914,-97.0507,2.0,243.43459,0.670820393,-99999.0,'11133222,11111222,99999999' 